• In Uzbekistan
  • List of Countries
  • For 7 days
  • Water Temperature
  • Satellite Maps
  • Weather Map
  • Weather Widgets
  • user-avatar
    Login

    Hourly Weather Salgotarjan

    Today, 17 October, Tuesday

    Time Temperature Precipitation Wind Pressure Humidity
    00:00 +12°C° 0 mm 0 mps 739 mmHg 79%
    01:00 +12°C° 0 mm 0 mps 739 mmHg 80%
    02:00 +12°C° 0 mm 0 mps 739 mmHg 80%
    03:00 +12°C° 0 mm 0 mps 739 mmHg 81%
    04:00 +11°C° 0 mm 0 mps 739 mmHg 82%
    05:00 +11°C° 0 mm 0 mps 739 mmHg 81%
    06:00 +12°C° 0 mm 0 mps 739 mmHg 81%
    07:00 +12°C° 0 mm 0 mps 739 mmHg 80%
    08:00 +14°C° 0 mm 0 mps 739 mmHg 72%
    09:00 +18°C° 0 mm 1 mps 740 mmHg 64%
    10:00 +20°C° 0 mm 1 mps 740 mmHg 56%
    11:00 +21°C° 0 mm 1 mps 740 mmHg 53%
    12:00 +22°C° 0 mm 1 mps 739 mmHg 50%
    13:00 +23°C° 0 mm 1 mps 739 mmHg 47%
    14:00 +22°C° 0 mm 1 mps 738 mmHg 51%
    15:00 +22°C° 0 mm 1 mps 738 mmHg 54%
    16:00 +19°C° 0 mm 0 mps 738 mmHg 57%
    17:00 +19°C° 0 mm 1 mps 737 mmHg 61%
    18:00 +18°C° 0 mm 1 mps 737 mmHg 66%
    19:00 +16°C° 0 mm 1 mps 737 mmHg 70%
    20:00 +15°C° 0 mm 1 mps 737 mmHg 71%
    21:00 +15°C° 0 mm 1 mps 737 mmHg 73%
    22:00 +14°C° 0 mm 1 mps 737 mmHg 75%
    23:00 +14°C° 0 mm 1 mps 736 mmHg 77%

    Tomorrow, 18 October, Wednesday

    Time Temperature Precipitation Wind Pressure Humidity
    00:00 +14°C° 0 mm 1 mps 736 mmHg 78%
    01:00 +13°C° 0 mm 1 mps 736 mmHg 80%
    02:00 +13°C° 0 mm 1 mps 736 mmHg 81%
    03:00 +13°C° 0 mm 1 mps 735 mmHg 82%
    04:00 +12°C° 0 mm 1 mps 735 mmHg 84%
    05:00 +12°C° 0 mm 1 mps 735 mmHg 83%
    06:00 +13°C° 0 mm 1 mps 735 mmHg 83%
    07:00 +13°C° 0 mm 1 mps 735 mmHg 83%
    08:00 +15°C° 0 mm 1 mps 735 mmHg 75%
    09:00 +18°C° 0 mm 1 mps 735 mmHg 67%
    10:00 +20°C° 0 mm 1 mps 735 mmHg 59%
    11:00 +21°C° 0 mm 1 mps 734 mmHg 56%
    12:00 +21°C° 0 mm 2 mps 734 mmHg 52%
    13:00 +21°C° 0 mm 2 mps 734 mmHg 48%
    14:00 +22°C° 0 mm 1 mps 733 mmHg 51%
    15:00 +21°C° 0 mm 1 mps 733 mmHg 55%
    16:00 +20°C° 0 mm 1 mps 732 mmHg 58%
    17:00 +19°C° 0 mm 1 mps 732 mmHg 61%
    18:00 +18°C° 0 mm 1 mps 732 mmHg 64%
    19:00 +16°C° 0 mm 1 mps 732 mmHg 67%
    20:00 +15°C° 0 mm 1 mps 732 mmHg 69%
    21:00 +15°C° 0 mm 1 mps 732 mmHg 70%
    22:00 +14°C° 0 mm 1 mps 732 mmHg 72%
    23:00 +14°C° 0 mm 1 mps 732 mmHg 73%

    Day after tomorrow, 19 October, Thursday

    Time Temperature Precipitation Wind Pressure Humidity
    00:00 +13°C° 0 mm 1 mps 732 mmHg 74%
    01:00 +13°C° 0 mm 1 mps 732 mmHg 75%
    02:00 +13°C° 0 mm 1 mps 732 mmHg 76%
    03:00 +12°C° 0 mm 1 mps 731 mmHg 77%
    04:00 +12°C° 0 mm 1 mps 731 mmHg 78%
    05:00 +12°C° 0 mm 1 mps 731 mmHg 78%
    06:00 +12°C° 0 mm 1 mps 732 mmHg 77%
    07:00 +12°C° 0 mm 1 mps 732 mmHg 77%
    08:00 +14°C° 0 mm 1 mps 732 mmHg 69%
    09:00 +16°C° 0 mm 1 mps 732 mmHg 61%
    10:00 +19°C° 0 mm 1 mps 732 mmHg 53%
    11:00 +20°C° 0 mm 1 mps 732 mmHg 50%
    12:00 +21°C° 0 mm 1 mps 732 mmHg 47%
    13:00 +21°C° 0 mm 1 mps 732 mmHg 44%
    14:00 +21°C° 0 mm 1 mps 732 mmHg 48%
    15:00 +20°C° 0 mm 1 mps 732 mmHg 51%
    16:00 +19°C° 0 mm 1 mps 731 mmHg 55%
    17:00 +18°C° 0 mm 1 mps 731 mmHg 59%
    18:00 +14°C° 0 mm 0 mps 731 mmHg 63%
    19:00 +13°C° 0 mm 0 mps 732 mmHg 67%
    20:00 +13°C° 0 mm 0 mps 732 mmHg 69%
    21:00 +12°C° 0 mm 0 mps 732 mmHg 70%
    22:00 +12°C° 0 mm 0 mps 732 mmHg 72%
    23:00 +11°C° 0 mm 0 mps 732 mmHg 74%

    20 October, Friday

    Time Temperature Precipitation Wind Pressure Humidity
    00:00 +11°C° 0 mm 0 mps 732 mmHg 75%
    01:00 +11°C° 0 mm 0 mps 732 mmHg 77%
    02:00 +10°C° 0 mm 0 mps 732 mmHg 78%
    03:00 +10°C° 0 mm 0 mps 732 mmHg 80%
    04:00 +10°C° 0 mm 0 mps 732 mmHg 81%
    05:00 +10°C° 0 mm 0 mps 732 mmHg 81%
    06:00 +11°C° 0 mm 1 mps 732 mmHg 80%
    07:00 +11°C° 0 mm 1 mps 732 mmHg 80%
    08:00 +13°C° 0 mm 1 mps 733 mmHg 72%
    09:00 +15°C° 0 mm 1 mps 733 mmHg 64%
    10:00 +19°C° 0 mm 1 mps 734 mmHg 56%
    11:00 +19°C° 0 mm 1 mps 733 mmHg 52%
    12:00 +20°C° 0 mm 1 mps 733 mmHg 49%
    13:00 +21°C° 0 mm 1 mps 733 mmHg 45%
    14:00 +20°C° 0 mm 1 mps 733 mmHg 48%
    15:00 +19°C° 0 mm 1 mps 733 mmHg 51%
    16:00 +19°C° 0 mm 1 mps 733 mmHg 54%
    17:00 +15°C° 0 mm 0 mps 733 mmHg 57%
    18:00 +14°C° 0 mm 0 mps 733 mmHg 61%
    19:00 +13°C° 0 mm 0 mps 734 mmHg 64%
    20:00 +12°C° 0 mm 0 mps 734 mmHg 66%
    21:00 +12°C° 0 mm 0 mps 734 mmHg 67%
    22:00 +13°C° 0 mm 1 mps 734 mmHg 69%
    23:00 +12°C° 0 mm 1 mps 734 mmHg 71%

    21 October, Saturday

    Time Temperature Precipitation Wind Pressure Humidity
    00:00 +12°C° 0 mm 1 mps 734 mmHg 73%
    01:00 +12°C° 0 mm 1 mps 734 mmHg 75%
    02:00 +11°C° 0 mm 1 mps 734 mmHg 76%
    03:00 +11°C° 0 mm 1 mps 733 mmHg 78%
    04:00 +10°C° 0 mm 1 mps 733 mmHg 79%
    05:00 +11°C° 0 mm 1 mps 733 mmHg 79%
    06:00 +11°C° 0 mm 1 mps 733 mmHg 79%
    07:00 +11°C° 0 mm 1 mps 734 mmHg 78%
    08:00 +13°C° 0 mm 1 mps 734 mmHg 70%
    09:00 +15°C° 0 mm 1 mps 734 mmHg 62%
    10:00 +18°C° 0 mm 1 mps 734 mmHg 54%
    11:00 +19°C° 0 mm 1 mps 734 mmHg 51%
    12:00 +20°C° 0 mm 1 mps 733 mmHg 48%
    13:00 +21°C° 0 mm 1 mps 733 mmHg 46%
    14:00 +20°C° 0 mm 1 mps 733 mmHg 49%
    15:00 +19°C° 0 mm 1 mps 732 mmHg 52%
    16:00 +18°C° 0 mm 1 mps 732 mmHg 55%
    17:00 +16°C° 0 mm 1 mps 732 mmHg 59%
    18:00 +15°C° 0 mm 1 mps 732 mmHg 62%
    19:00 +14°C° 0 mm 1 mps 732 mmHg 66%
    20:00 +13°C° 0 mm 1 mps 732 mmHg 67%
    21:00 +13°C° 0 mm 1 mps 731 mmHg 68%
    22:00 +13°C° 0 mm 1 mps 731 mmHg 70%
    23:00 +12°C° 0 mm 1 mps 731 mmHg 71%

    22 October, Sunday

    Time Temperature Precipitation Wind Pressure Humidity
    00:00 +12°C° 0 mm 1 mps 731 mmHg 72%
    01:00 +12°C° 0 mm 1 mps 731 mmHg 73%
    02:00 +12°C° 0 mm 1 mps 731 mmHg 74%
    03:00 +12°C° 0 mm 1 mps 730 mmHg 74%
    04:00 +11°C° 0 mm 1 mps 730 mmHg 75%
    05:00 +11°C° 0 mm 1 mps 730 mmHg 75%
    06:00 +11°C° 0 mm 1 mps 730 mmHg 75%
    07:00 +11°C° 0 mm 1 mps 730 mmHg 75%
    08:00 +12°C° 0 mm 1 mps 729 mmHg 74%
    09:00 +13°C° 0 mm 1 mps 729 mmHg 72%
    10:00 +14°C° 0 mm 1 mps 729 mmHg 71%
    11:00 +14°C° 0 mm 1 mps 729 mmHg 70%
    12:00 +15°C° 0 mm 1 mps 728 mmHg 69%
    13:00 +15°C° 0 mm 1 mps 728 mmHg 68%
    14:00 +15°C° 0.2 mm 1 mps 728 mmHg 72%
    15:00 +14°C° 0.2 mm 1 mps 728 mmHg 75%
    16:00 +14°C° 0.2 mm 1 mps 727 mmHg 78%
    17:00 +13°C° 1.5 mm 1 mps 727 mmHg 81%
    18:00 +12°C° 1.5 mm 2 mps 728 mmHg 85%
    19:00 +12°C° 1.5 mm 2 mps 728 mmHg 88%
    20:00 +12°C° 0.3 mm 2 mps 728 mmHg 88%
    21:00 +10°C° 0.3 mm 2 mps 728 mmHg 87%
    22:00 +10°C° 0.3 mm 2 mps 728 mmHg 86%
    23:00 +10°C° 0.1 mm 2 mps 728 mmHg 85%
    Show more